TimeCDT,TemperatureF,Dew PointF,Humidity,Sea Level PressureIn,VisibilityMPH,Wind Direction,Wind SpeedMPH,Gust SpeedMPH,PrecipitationIn,Events,Conditions,WindDirDegrees,DateUTC
12:53 AM,34.0,32.0,92,29.81,4.0,North,10.4,-,N/A,,Overcast,350,2013-03-16 05:53:00
1:53 AM,34.0,32.0,92,29.82,4.0,NNW,9.2,-,N/A,,Overcast,340,2013-03-16 06:53:00
2:40 AM,33.8,32.0,93,29.80,2.5,NNW,6.9,-,N/A,,Overcast,330,2013-03-16 07:40:00
2:53 AM,33.1,32.0,96,29.82,2.5,NNW,8.1,-,N/A,,Overcast,330,2013-03-16 07:53:00
3:13 AM,33.8,32.0,93,29.81,2.0,NW,8.1,-,N/A,,Overcast,320,2013-03-16 08:13:00
3:25 AM,33.8,32.0,93,29.81,1.5,NNW,10.4,-,N/A,,Overcast,330,2013-03-16 08:25:00
3:50 AM,33.8,33.8,100,29.81,1.0,NW,9.2,-,N/A,,Overcast,320,2013-03-16 08:50:00
3:53 AM,33.1,33.1,100,29.83,0.8,NW,8.1,-,N/A,,Overcast,320,2013-03-16 08:53:00
4:25 AM,33.8,33.8,100,29.83,1.2,NW,12.7,-,N/A,,Overcast,320,2013-03-16 09:25:00
4:53 AM,34.0,33.1,96,29.87,1.5,NW,15.0,-,N/A,,Overcast,320,2013-03-16 09:53:00
5:38 AM,33.8,32.0,93,29.87,2.5,NNW,15.0,-,N/A,,Overcast,330,2013-03-16 10:38:00
5:41 AM,33.8,32.0,93,29.87,3.0,NNW,15.0,-,N/A,,Overcast,330,2013-03-16 10:41:00
5:53 AM,34.0,32.0,92,29.90,4.0,NNW,15.0,-,N/A,,Overcast,330,2013-03-16 10:53:00
6:35 AM,33.8,28.4,81,29.92,10.0,NNW,20.7,28.8,N/A,,Overcast,330,2013-03-16 11:35:00
6:53 AM,33.1,28.0,82,29.96,10.0,NNW,23.0,-,N/A,,Overcast,330,2013-03-16 11:53:00
7:53 AM,32.0,27.0,82,30.00,10.0,NNW,18.4,-,N/A,,Overcast,340,2013-03-16 12:53:00
8:53 AM,30.9,26.1,82,30.04,10.0,NNW,24.2,31.1,N/A,,Overcast,340,2013-03-16 13:53:00
9:53 AM,28.9,24.1,82,30.06,10.0,North,24.2,-,N/A,,Overcast,350,2013-03-16 14:53:00
10:53 AM,28.9,24.1,82,30.08,10.0,NNW,19.6,27.6,N/A,,Overcast,340,2013-03-16 15:53:00
11:53 AM,28.0,21.9,78,30.11,10.0,North,19.6,26.5,N/A,,Overcast,360,2013-03-16 16:53:00
12:53 PM,30.0,23.0,75,30.11,10.0,North,19.6,-,N/A,,Mostly Cloudy,350,2013-03-16 17:53:00
1:18 PM,30.2,23.0,75,30.09,10.0,North,21.9,-,N/A,,Scattered Clouds,350,2013-03-16 18:18:00
1:46 PM,30.2,24.8,80,30.08,10.0,North,21.9,-,N/A,,Mostly Cloudy,360,2013-03-16 18:46:00
1:53 PM,30.9,24.1,76,30.11,10.0,North,20.7,28.8,N/A,,Mostly Cloudy,360,2013-03-16 18:53:00
2:00 PM,30.2,23.0,75,30.07,10.0,North,20.7,26.5,N/A,,Scattered Clouds,10,2013-03-16 19:00:00
2:10 PM,30.2,24.8,80,30.07,10.0,North,17.3,-,N/A,,Mostly Cloudy,10,2013-03-16 19:10:00
2:39 PM,30.2,24.8,80,30.07,10.0,North,17.3,23.0,N/A,,Scattered Clouds,10,2013-03-16 19:39:00
2:48 PM,32.0,24.8,75,30.07,10.0,North,18.4,-,N/A,,Mostly Cloudy,360,2013-03-16 19:48:00
2:53 PM,32.0,23.0,69,30.10,10.0,North,16.1,-,N/A,,Scattered Clouds,360,2013-03-16 19:53:00
3:29 PM,30.2,21.2,69,30.07,10.0,North,12.7,-,N/A,,Mostly Cloudy,360,2013-03-16 20:29:00
3:53 PM,30.9,21.9,69,30.09,10.0,North,15.0,-,N/A,,Mostly Cloudy,360,2013-03-16 20:53:00
4:09 PM,30.2,21.2,69,30.06,10.0,North,16.1,-,N/A,,Scattered Clouds,360,2013-03-16 21:09:00
4:40 PM,32.0,23.0,69,30.07,10.0,North,12.7,-,N/A,,Mostly Cloudy,360,2013-03-16 21:40:00
4:53 PM,30.0,21.0,69,30.10,10.0,North,12.7,-,N/A,,Mostly Cloudy,10,2013-03-16 21:53:00
5:02 PM,28.4,19.4,69,30.07,10.0,North,11.5,-,N/A,,Scattered Clouds,360,2013-03-16 22:02:00
5:33 PM,30.2,21.2,69,30.08,10.0,North,11.5,-,N/A,,Mostly Cloudy,10,2013-03-16 22:33:00
5:53 PM,30.9,21.9,69,30.11,10.0,NNE,12.7,-,N/A,,Overcast,20,2013-03-16 22:53:00
6:53 PM,28.9,19.9,69,30.13,10.0,NNW,10.4,-,N/A,,Overcast,340,2013-03-16 23:53:00
7:25 PM,28.4,19.4,69,30.11,10.0,North,12.7,-,N/A,,Partly Cloudy,350,2013-03-17 00:25:00
7:53 PM,28.0,19.9,72,30.15,10.0,North,10.4,-,N/A,,Clear,360,2013-03-17 00:53:00
8:53 PM,27.0,19.9,75,30.17,10.0,North,8.1,-,N/A,,Partly Cloudy,360,2013-03-17 01:53:00
9:16 PM,26.6,21.2,80,30.14,10.0,North,12.7,-,N/A,,Mostly Cloudy,350,2013-03-17 02:16:00
9:53 PM,27.0,19.9,75,30.19,10.0,North,12.7,-,N/A,,Partly Cloudy,350,2013-03-17 02:53:00
10:18 PM,26.6,19.4,74,30.17,10.0,NNW,12.7,-,N/A,,Mostly Cloudy,340,2013-03-17 03:18:00
10:40 PM,26.6,19.4,74,30.18,10.0,North,15.0,-,N/A,,Scattered Clouds,350,2013-03-17 03:40:00
10:53 PM,26.1,19.0,75,30.22,10.0,NNW,12.7,-,N/A,,Clear,340,2013-03-17 03:53:00
11:53 PM,25.0,18.0,75,30.22,10.0,North,16.1,-,N/A,,Clear,350,2013-03-17 04:53:00